Dewpoint
31 27 25 24 27 25 27 28 26 24 23 24 26 25 30 41 42 42 43 43 44 45 47 49 52 52 51 50 50 49 49 51 49 48 47 44 42 40 37 36 36 34 32 31
30 28 24 22 22 23 24 26 25 24 22 24 26 27 26 38 40 41 42 43 43 44 46 47 49 50 52 52 51 49 51 50 48 47 45 42 39 37 36 36 33 32 31 31
28 28 26 24 27 25 24 23 21 19 27 35 35 33 28 26 40 41 42 42 43 43 45 46 47 49 49 49 49 50 50 48 47 45 41 39 37 36 35 32 32 31 31 25
29 31 23 28 27 25 25 31 37 37 39 40 40 40 38 40 36 40 41 42 43 44 45 46 47 48 49 48 49 49 48 46 44 42 39 37 35 34 33 32 30 30 30 27
28 29 31 31 30 28 26 30 37 38 39 39 39 40 39 40 41 38 41 42 43 45 46 46 46 47 47 47 47 47 46 44 42 39 37 35 33 33 32 31 31 29 30 26
28 25 26 31 29 28 28 29 38 39 39 39 39 37 39 41 42 39 41 42 43 44 45 45 44 45 45 45 46 45 44 42 39 38 36 34 33 32 31 31 29 28 28 25
27 27 30 30 27 29 25 32 40 40 39 39 38 40 41 41 42 41 41 41 43 43 43 43 44 44 43 44 44 44 42 39 37 36 34 33 32 31 31 29 28 27 26 26
28 25 23 40 37 35 40 41 40 40 40 40 40 41 40 40 41 42 40 41 42 42 42 42 43 43 42 42 41 40 38 36 34 33 30 31 30 30 29 27 25 25 24 23
31 29 40 40 39 40 41 39 39 38 38 36 38 38 40 40 40 42 42 40 41 41 41 42 42 42 40 40 37 36 34 33 32 31 29 30 28 28 27 26 24 23 23 23
31 32 35 40 40 41 36 37 35 35 36 35 33 33 32 37 39 40 42 40 40 40 40 40 40 40 39 37 36 34 32 31 28 27 28 27 26 27 26 25 25 23 23 23
26 26 35 31 30 27 27 31 32 33 33 31 32 29 32 34 42 41 41 40 39 39 40 39 40 39 38 36 34 32 29 27 26 27 26 26 26 26 25 26 26 25 24 25
24 26 25 24 25 24 23 25 27 29 27 25 24 26 26 28 40 41 42 42 39 39 40 39 39 38 35 34 32 30 27 26 26 26 25 23 23 23 28 28 30 29 28 27
23 23 23 24 23 23 23 24 23 24 24 22 22 22 23 22 35 40 41 42 41 39 40 38 38 38 34 33 31 29 26 25 25 25 23 22 22 21 21 25 29 28 28 26
24 25 23 22 22 24 23 22 24 20 20 21 21 22 23 24 32 42 41 42 43 41 39 38 38 38 34 32 30 28 26 27 24 24 23 22 20 20 20 19 19 23 27 24
22 21 22 25 28 32 33 33 32 30 26 25 25 29 30 29 39 40 41 42 44 43 41 39 38 37 34 32 29 28 26 25 24 25 24 23 22 21 20 20 19 20 22 22
29 33 34 34 33 33 33 33 33 34 34 34 34 34 34 35 33 39 40 40 40 43 43 38 38 36 34 32 30 28 27 26 25 24 23 22 22 22 22 20 21 20 20 19
32 32 33 33 33 32 32 33 35 35 36 36 36 36 36 36 37 38 41 40 40 41 43 42 40 37 34 32 31 29 26 25 25 23 22 20 21 23 23 23 23 22 23 24
34 34 34 33 33 34 34 34 35 36 34 35 36 37 37 34 36 37 38 39 37 36 40 42 39 36 34 32 30 28 25 24 23 22 20 20 20 22 22 23 24 21 20 21
32 32 33 34 34 34 35 35 36 36 37 37 37 37 37 36 38 38 38 38 35 35 36 40 33 33 31 31 29 27 24 23 22 20 20 21 21 20 19 20 19 18 17 14
29 28 28 29 30 31 33 34 33 33 34 35 36 35 35 34 34 34 35 36 37 37 37 35 32 32 30 30 28 26 23 23 20 18 19 18 19 19 19 20 22 20 18 15
29 29 28 29 30 31 33 33 33 34 34 33 33 34 34 33 33 33 33 34 37 36 36 31 31 31 29 28 27 24 23 22 21 20 20 20 21 19 18 18 19 20 21 18
29 29 28 29 30 30 33 34 34 33 32 32 34 34 34 33 33 33 33 33 36 32 32 31 31 30 29 28 26 25 23 22 22 22 22 23 21 21 21 20 21 21 20 19
28 28 29 26 26 30 31 32 33 32 33 34 34 34 34 34 35 33 33 35 35 33 31 31 31 30 29 29 26 25 24 24 24 23 24 24 24 25 24 23 23 21 20 17
26 27 28 29 27 30 30 32 33 33 34 34 34 34 34 34 34 35 35 34 32 28 32 32 31 29 29 30 28 27 26 26 26 27 27 26 25 24 23 23 22 21 19 17
29 28 28 29 31 31 31 32 33 33 34 34 33 34 34 34 33 34 33 32 32 32 31 31 29 29 30 30 29 29 29 27 27 27 26 26 25 24 24 23 22 21 19 18
30 31 31 33 32 32 33 32 34 35 34 31 31 33 32 31 31 31 31 31 30 32 30 31 32 32 31 30 29 29 28 28 27 27 26 26 25 24 23 22 21 20 18 17
31 29 30 32 33 33 33 32 32 33 33 33 32 32 30 30 30 29 29 29 30 31 29 30 31 30 30 29 29 29 28 28 27 27 26 26 25 24 23 22 20 19 17 16
Lifted_Index
2 2 2 2 1 1 1 1 1 2 2 2 2 2 1 0 -0 1 1 2 1 0 -1 -1 -1 -1 -1 -0 -0 -0 0 1 1 1 2 2 2 3 3 4 6 8 9 10
3 2 2 2 2 2 1 1 1 1 2 2 1 1 1 0 -0 0 1 2 1 1 0 -0 -1 -1 -1 -0 -0 0 1 1 1 2 2 2 3 3 3 5 6 8 10 11
2 2 2 2 2 2 1 1 1 1 1 1 1 1 0 -0 -1 -1 0 1 1 1 1 1 0 0 -0 0 0 1 1 1 2 2 3 3 4 4 5 6 7 8 10 12
2 1 2 2 2 1 1 1 1 1 1 1 0 -0 -0 -0 -0 -1 -0 0 1 1 1 1 1 1 1 1 1 1 1 2 2 3 3 4 4 5 6 7 8 9 12 14
1 1 2 2 2 1 0 0 1 1 1 1 1 -0 -1 -1 -1 -1 -1 -0 0 1 1 1 2 2 2 1 1 2 2 2 2 3 4 5 5 6 7 8 9 11 14 16
1 1 2 2 1 1 0 0 1 1 1 1 0 -0 -1 -1 -1 -1 -1 -1 -1 -0 0 1 2 2 2 2 2 2 3 3 3 4 5 6 6 7 8 9 10 13 16 17
2 2 2 2 1 1 0 0 0 1 1 1 0 0 -0 -1 -1 -1 -2 -2 -1 -1 -1 0 1 2 3 3 3 4 4 4 4 5 6 7 7 8 9 10 12 14 16 18
2 2 2 1 1 0 0 0 0 0 1 1 1 1 -0 -1 -1 -1 -1 -2 -1 -1 -1 0 1 2 3 4 4 5 5 5 6 6 7 8 8 9 10 12 13 15 17 18
1 1 1 0 0 -0 0 0 1 1 1 1 1 1 1 0 -0 -1 -1 -1 -1 -1 -1 0 2 3 3 4 5 5 5 6 6 7 8 9 9 10 11 13 14 16 17 18
1 1 0 0 0 1 1 1 2 2 3 2 2 2 2 2 1 -0 -1 -0 -0 -1 -0 0 2 3 4 5 5 5 6 7 7 8 8 9 11 12 13 14 15 16 18 18
2 2 1 1 1 2 3 3 3 4 4 4 4 4 4 3 2 1 -0 0 0 -0 -0 1 2 3 4 5 5 6 6 7 8 8 8 9 11 13 15 17 17 18 18 19
3 3 3 3 3 4 4 4 5 5 5 5 5 5 5 5 3 2 1 1 1 0 0 1 2 3 4 5 5 6 6 7 8 8 8 9 10 13 15 18 19 19 19 19
4 4 4 4 5 5 6 6 6 7 7 7 6 6 6 6 5 3 2 1 1 1 1 1 2 3 4 5 5 6 6 7 8 8 8 9 10 12 14 16 18 19 19 19
5 5 5 5 5 6 6 7 7 7 7 7 7 7 7 7 5 4 2 2 2 2 2 2 2 3 4 5 6 6 6 7 8 9 9 10 11 12 14 15 17 18 19 20
6 6 6 6 6 6 7 7 7 7 7 7 7 7 7 7 6 4 3 3 3 2 3 3 3 3 4 5 5 6 6 7 8 9 10 11 12 13 14 15 16 18 19 20
6 6 7 7 7 7 7 7 7 7 7 6 6 6 6 6 6 5 4 4 3 3 3 3 3 4 4 4 5 6 6 7 8 10 11 12 13 13 14 15 16 18 19 19
6 6 7 7 7 7 7 7 7 6 6 6 6 5 5 6 6 6 5 4 4 3 3 3 4 4 4 5 5 5 6 7 8 9 11 13 13 14 14 15 16 17 19 19
5 6 6 6 7 6 6 6 6 6 6 6 5 5 5 5 5 5 5 4 4 4 4 4 4 4 5 5 5 5 6 7 8 9 11 13 14 15 15 16 17 17 19 20
5 5 6 6 6 6 6 6 6 6 6 6 5 5 5 5 5 5 4 4 3 3 3 4 4 4 4 5 6 7 7 8 8 9 11 13 15 16 17 18 18 18 19 20
4 5 5 5 5 5 5 6 6 6 6 6 5 4 4 4 5 4 4 3 3 3 3 4 4 4 4 5 6 7 8 9 9 10 12 13 15 16 17 18 18 18 19 20
3 3 4 4 4 5 5 5 6 6 6 5 5 4 3 3 3 3 4 3 3 3 4 4 4 3 3 4 6 7 8 9 10 11 12 14 15 16 17 17 17 17 19 20
2 2 2 3 4 4 5 5 5 5 5 5 5 4 3 3 3 2 3 3 3 4 4 4 3 3 3 4 6 7 8 9 10 12 14 15 16 17 17 17 16 17 19 21
1 1 2 3 4 4 4 4 4 5 5 5 5 5 4 4 3 2 2 3 4 4 4 4 4 3 4 5 6 8 9 10 11 13 15 16 17 17 17 17 17 19 20 21
1 1 2 3 3 4 4 4 4 4 4 5 5 5 5 4 4 3 3 3 4 4 4 4 4 5 5 6 8 10 11 12 13 14 15 17 18 18 18 18 19 20 21 22
1 1 2 2 3 3 3 4 4 4 4 4 4 5 5 5 4 4 4 4 4 4 5 5 6 7 8 9 10 12 13 13 14 15 16 17 18 18 18 19 20 21 22 22
1 2 2 2 2 2 3 4 4 4 4 4 4 5 6 6 5 5 4 4 5 5 6 7 9 9 10 11 12 13 14 15 16 17 17 17 17 18 18 19 20 22 22 22
2 2 2 2 2 2 3 4 5 5 4 4 4 5 6 6 6 5 5 5 5 6 7 9 10 11 11 12 14 14 15 16 17 17 17 17 17 18 18 19 21 22 22 22